Tracking 26544 objects as of 9-Dec-2022
HD Live streaming from Space Station
objects crossing your sky now

ATLAS 5 CENTAUR DEB

Track ATLAS 5 CENTAUR DEB now!


NORAD ID: 44667
Int'l Code: 2018-079AD
Perigee: 8,110.7 km
Apogee: 34,044.2 km
Inclination: 11.3 °
Period: 754.3 minutes
Semi major axis: 27448 km
RCS: Unknown
Launch date: October 17, 2018
Source: United States (US)
Launch site: AIR FORCE EASTERN TEST RANGE (AFETR)

Note: This is SATELLITE DEBRIS
aabbcc
Your satellite tracking list
Your tracking list is empty




NASA's NSSDC Master Catalog

Two Line Element Set (TLE):
1 44667U 18079AD  22342.00188798 -.00000096  00000-0  00000+0 0  9991
2 44667  11.3088 138.6504 4724025 118.7041 296.5929  1.90908668 24503
Source of the keplerian elements: AFSPC